User: anonymous   Login
Location: Unspecified
(0.0000°N, 0.0000°E)
Time: 20:23:45
(UTC+00:00)
Language:

OV3-3 - Orbit

View from above orbital plane
View from above orbital plane
View from above satellite
View from above satellite

Ground track
Ground track

The orbit data is extracted from the following two-line orbital elements,

1  2389U 66070A   17326.60259663 +.00003265 +00000-0 +18499-3 0  9997
2  2389 081.3930 039.3720 1247114 254.9844 091.0225 12.90805558190257
Epoch (UTC): 22 November 2017 14:27:44
Eccentricity: 0.1247114
inclination: 81.3930°
perigee height: 341 km
apogee height: 2255 km
right ascension of ascending node: 39.3720°
argument of perigee: 254.9844°
revolutions per day: 12.90805558
mean anomaly at epoch: 91.0225°
orbit number at epoch: 19025

The dashed part of the orbit path shows where the satellite is in the earth's shadow,  

DLR